FW4241 Weather Reports


time (UTC)temp
C
wind
direction
speed
KPH
gust
KPH
rain 1hr
cm
rain 24hr
cm
rain mn
cm
humidity
%
barometer
mb
20260503194551 29 39 1.6 8.0 0.00 0.00 0.00 44 1010.3
20260503193106 28 225 1.6 6.4 0.00 0.00 0.00 46 1010.4
20260503191515 27 43 0.0 6.4 0.00 0.00 0.00 46 1010.7
20260503190035 26 279 0.0 9.7 0.00 0.00 0.00 47 1010.8
20260503184509 25 100 1.6 8.0 0.00 0.00 0.00 50 1010.9
20260503183011 24 298 0.0 9.7 0.00 0.00 0.00 54 1011.2
20260503181501 25 261 3.2 8.0 0.00 0.00 0.00 53 1011.3
20260503180100 23 111 1.6 8.0 0.00 0.00 0.00 58 1011.5
20260503174525 22 276 1.6 8.0 0.00 0.00 0.00 61 1011.6
20260503173022 22 242 1.6 9.7 0.00 0.00 0.00 63 1011.5
20260503171531 22 263 3.2 6.4 0.00 0.00 0.00 62 1011.8
20260503081539 12 74 0.0 0.0 0.00 0.08 0.00 93 1012.6
20260503071609 12 74 0.0 0.0 0.00 0.08 0.00 92 1012.8
20260503054529 14 66 0.0 3.2 0.00 0.08 0.00 89 1012.8
20260503053021 14 164 0.0 0.0 0.00 0.08 0.00 88 1012.5
20260503051519 15 164 0.0 1.6 0.00 0.08 0.00 86 1012.6
20260503050019 15 81 0.0 1.6 0.00 0.08 0.00 86 1012.7
20260503044517 15 130 0.0 4.8 0.00 0.08 0.00 85 1012.8
20260503043051 16 70 0.0 0.0 0.00 0.08 0.00 84 1012.9
20260503041547 16 70 0.0 1.6 0.00 0.08 0.00 82 1012.8
20260503040044 16 83 0.0 1.6 0.00 0.08 0.00 81 1012.5
20260503034544 17 74 0.0 1.6 0.00 0.08 0.00 79 1012.6
20260503033046 17 79 0.0 3.2 0.00 0.08 0.00 77 1012.3
20260503031543 17 229 0.0 0.0 0.00 0.08 0.00 76 1012.3
20260503030038 18 229 0.0 1.6 0.00 0.08 0.00 75 1012.1
20260503024539 18 229 0.0 11.3 0.00 0.08 0.00 75 1012.1
20260503023037 18 276 3.2 14.5 0.00 0.08 0.00 73 1012.2
20260503021540 20 229 9.7 24.1 0.00 0.08 0.00 70 1012.2
20260503020039 22 169 3.2 8.0 0.00 0.08 0.00 64 1011.9
20260503014602 22 121 0.0 4.8 0.00 0.08 0.00 63 1011.3
20260503013039 22 121 0.0 4.8 0.00 0.08 0.00 62 1011.3
20260503011505 22 67 0.0 1.6 0.00 0.08 0.00 60 1011.2
20260503010003 22 226 0.0 3.2 0.00 0.08 0.00 59 1011.2
20260503004503 22 220 3.2 6.4 0.00 0.08 0.00 59 1011.2
20260503003101 22 232 0.0 9.7 0.00 0.08 0.00 58 1011.2
20260503001602 22 257 0.0 6.4 0.00 0.08 0.00 57 1011.2
20260503000059 22 256 0.0 6.4 0.00 0.08 0.00 57 1011.4
20260502234555 22 70 1.6 6.4 0.00 0.08 0.00 58 1011.5
20260502233053 21 221 3.2 11.3 0.00 0.08 0.00 61 1011.6
20260502231548 22 209 1.6 9.7 0.00 0.08 0.00 62 1011.9
20260502230047 21 259 3.2 12.9 0.00 0.08 0.00 61 1012.0
20260502224516 21 219 3.2 8.0 0.00 0.08 0.00 60 1012.2
20260502223013 21 252 0.0 9.7 0.00 0.08 0.00 62 1012.6
20260502221507 20 75 3.2 9.7 0.00 0.08 0.00 62 1012.8
20260502220005 20 209 0.0 11.3 0.00 0.08 0.00 64 1013.0
20260502214506 20 127 1.6 8.0 0.00 0.08 0.00 64 1013.1
20260502213001 20 71 1.6 9.7 0.00 0.08 0.00 64 1013.5
20260502211538 19 49 4.8 9.7 0.00 0.08 0.00 65 1013.6
20260502210033 19 245 4.8 9.7 0.00 0.08 0.00 65 1013.7
20260502204519 18 174 6.4 11.3 0.00 0.08 0.00 66 1014.3
20260502203016 17 51 0.0 8.0 0.00 0.08 0.00 69 1014.3
20260502201512 17 75 3.2 8.0 0.00 0.08 0.00 71 1014.5
20260502200013 17 191 0.0 9.7 0.00 0.08 0.00 72 1014.5